| time (UTC) | temp F | wind direction | speed MPH | gust MPH | rain 1hr in | rain 24hr in | rain mn in | humidity % | barometer mb |
| 20260509034636 | 57 | 219 | 3.0 | 3.0 | 0.00 | 0.00 | 0.00 | 72 | 1005.6 |
| 20260509034137 | 57 | 186 | 4.0 | 2.0 | 0.00 | 0.00 | 0.00 | 72 | 1005.5 |
| 20260509033636 | 57 | 211 | 2.0 | 2.0 | 0.00 | 0.00 | 0.00 | 72 | 1005.5 |
| 20260509033137 | 57 | 219 | 4.0 | 2.0 | 0.00 | 0.00 | 0.00 | 72 | 1005.5 |
| 20260509032637 | 57 | 197 | 2.0 | 2.0 | 0.00 | 0.00 | 0.00 | 71 | 1005.6 |
| 20260509032137 | 56 | 196 | 2.0 | 2.0 | 0.00 | 0.00 | 0.00 | 71 | 1005.4 |
| 20260509031636 | 56 | 205 | 2.0 | 2.0 | 0.00 | 0.00 | 0.00 | 71 | 1005.5 |
| 20260509031137 | 56 | 217 | 3.0 | 3.0 | 0.00 | 0.00 | 0.00 | 71 | 1005.5 |
| 20260509030636 | 56 | 196 | 4.0 | 3.0 | 0.00 | 0.00 | 0.00 | 70 | 1005.5 |
| 20260509030137 | 56 | 150 | 3.0 | 2.0 | 0.00 | 0.00 | 0.00 | 70 | 1005.6 |
| 20260509025637 | 56 | 186 | 2.0 | 2.0 | 0.00 | 0.00 | 0.00 | 70 | 1005.5 |
| 20260509025137 | 56 | 198 | 2.0 | 1.0 | 0.00 | 0.00 | 0.00 | 69 | 1005.5 |
| 20260509024636 | 56 | 0 | 0.0 | 0.0 | 0.00 | 0.00 | 0.00 | 68 | 1005.7 |
| 20260509024137 | 56 | 0 | 0.0 | 0.0 | 0.00 | 0.00 | 0.00 | 68 | 1005.7 |
| 20260509023637 | 56 | 0 | 0.0 | 0.0 | 0.00 | 0.00 | 0.00 | 68 | 1005.8 |
| 20260509023138 | 56 | 0 | 0.0 | 0.0 | 0.00 | 0.00 | 0.00 | 67 | 1005.8 |
| 20260509022636 | 56 | 0 | 0.0 | 0.0 | 0.00 | 0.00 | 0.00 | 67 | 1005.8 |
| 20260509022137 | 56 | 0 | 0.0 | 0.0 | 0.00 | 0.00 | 0.00 | 67 | 1005.8 |
| 20260509021636 | 56 | 0 | 0.0 | 0.0 | 0.00 | 0.00 | 0.00 | 66 | 1005.9 |
| 20260509021137 | 56 | 0 | 0.0 | 0.0 | 0.00 | 0.00 | 0.00 | 66 | 1005.9 |
| 20260509020636 | 56 | 0 | 0.0 | 0.0 | 0.00 | 0.00 | 0.00 | 65 | 1005.9 |
| 20260509020137 | 56 | 0 | 0.0 | 0.0 | 0.00 | 0.00 | 0.00 | 65 | 1005.8 |
| 20260509015636 | 56 | 0 | 0.0 | 0.0 | 0.00 | 0.00 | 0.00 | 65 | 1005.8 |
| 20260509015137 | 56 | 0 | 0.0 | 0.0 | 0.00 | 0.00 | 0.00 | 64 | 1005.7 |
| 20260509014637 | 57 | 0 | 0.0 | 0.0 | 0.00 | 0.00 | 0.00 | 64 | 1005.7 |
| 20260509014137 | 57 | 0 | 0.0 | 0.0 | 0.00 | 0.00 | 0.00 | 63 | 1005.7 |
| 20260509013636 | 57 | 0 | 0.0 | 0.0 | 0.00 | 0.00 | 0.00 | 62 | 1005.8 |
| 20260509013137 | 57 | 0 | 0.0 | 0.0 | 0.00 | 0.00 | 0.00 | 61 | 1005.8 |
| 20260509012636 | 57 | 0 | 0.0 | 0.0 | 0.00 | 0.00 | 0.00 | 61 | 1005.7 |
| 20260509012137 | 57 | 0 | 0.0 | 0.0 | 0.00 | 0.00 | 0.00 | 60 | 1005.7 |
| 20260509011636 | 58 | 0 | 0.0 | 0.0 | 0.00 | 0.00 | 0.00 | 60 | 1005.6 |
| 20260509011137 | 58 | 0 | 0.0 | 0.0 | 0.00 | 0.00 | 0.00 | 60 | 1005.6 |
| 20260509010636 | 58 | 0 | 0.0 | 0.0 | 0.00 | 0.00 | 0.00 | 59 | 1005.7 |
| 20260509010137 | 58 | 79 | 1.0 | 0.0 | 0.00 | 0.00 | 0.00 | 59 | 1005.7 |
| 20260509005636 | 58 | 0 | 0.0 | 0.0 | 0.00 | 0.00 | 0.00 | 58 | 1005.7 |
| 20260509005137 | 58 | 0 | 0.0 | 1.0 | 0.00 | 0.00 | 0.00 | 58 | 1005.7 |
| 20260509004636 | 59 | 0 | 0.0 | 1.0 | 0.00 | 0.00 | 0.00 | 57 | 1005.7 |
| 20260509004137 | 59 | 0 | 0.0 | 2.0 | 0.00 | 0.00 | 0.00 | 57 | 1005.6 |
| 20260509003636 | 59 | 76 | 1.0 | 2.0 | 0.00 | 0.00 | 0.00 | 57 | 1005.7 |
| 20260509003137 | 59 | 60 | 3.0 | 2.0 | 0.00 | 0.00 | 0.00 | 57 | 1005.8 |
| 20260509002637 | 59 | 65 | 3.0 | 3.0 | 0.00 | 0.00 | 0.00 | 57 | 1005.8 |
| 20260509002139 | 59 | 51 | 2.0 | 3.0 | 0.00 | 0.00 | 0.00 | 56 | 1005.8 |
| 20260509001636 | 59 | 91 | 3.0 | 2.0 | 0.00 | 0.00 | 0.00 | 57 | 1005.9 |
| 20260509001137 | 60 | 91 | 4.0 | 2.0 | 0.00 | 0.00 | 0.00 | 57 | 1005.9 |
| 20260509000636 | 60 | 77 | 2.0 | 3.0 | 0.00 | 0.00 | 0.00 | 57 | 1006.0 |
| 20260509000138 | 60 | 64 | 4.0 | 2.0 | 0.00 | 0.00 | 0.00 | 56 | 1005.9 |
| 20260508235638 | 60 | 85 | 2.0 | 3.0 | 0.00 | 0.00 | 0.00 | 57 | 1005.9 |
| 20260508235138 | 60 | 94 | 1.0 | 4.0 | 0.00 | 0.00 | 0.00 | 56 | 1006.0 |
| 20260508234636 | 60 | 79 | 4.0 | 4.0 | 0.00 | 0.00 | 0.00 | 57 | 1006.0 |
| 20260508234136 | 61 | 76 | 4.0 | 3.0 | 0.00 | 0.00 | 0.00 | 57 | 1006.0 |
| 20260508233636 | 61 | 87 | 4.0 | 2.0 | 0.00 | 0.00 | 0.00 | 58 | 1006.1 |
| 20260508233137 | 61 | 60 | 2.0 | 2.0 | 0.00 | 0.00 | 0.00 | 58 | 1006.0 |
| 20260508232636 | 61 | 86 | 1.0 | 3.0 | 0.00 | 0.00 | 0.00 | 58 | 1006.1 |
| 20260508232137 | 61 | 44 | 5.0 | 3.0 | 0.00 | 0.00 | 0.00 | 57 | 1006.1 |
| 20260508231636 | 61 | 106 | 3.0 | 3.0 | 0.00 | 0.00 | 0.00 | 57 | 1006.2 |
| 20260508231136 | 61 | 101 | 1.0 | 4.0 | 0.00 | 0.00 | 0.00 | 56 | 1006.2 |
| 20260508230636 | 61 | 46 | 2.0 | 3.0 | 0.00 | 0.00 | 0.00 | 56 | 1006.2 |
| 20260508230137 | 62 | 60 | 6.0 | 3.0 | 0.00 | 0.00 | 0.00 | 55 | 1006.2 |
| 20260508225636 | 62 | 91 | 3.0 | 3.0 | 0.00 | 0.00 | 0.00 | 54 | 1006.4 |
| 20260508225137 | 62 | 82 | 3.0 | 4.0 | 0.00 | 0.00 | 0.00 | 54 | 1006.4 |
| 20260508224636 | 62 | 82 | 2.0 | 4.0 | 0.00 | 0.00 | 0.00 | 54 | 1006.4 |
| 20260508224137 | 63 | 43 | 3.0 | 4.0 | 0.00 | 0.00 | 0.00 | 55 | 1006.3 |
| 20260508223637 | 63 | 81 | 2.0 | 4.0 | 0.00 | 0.00 | 0.00 | 55 | 1006.4 |
| 20260508223136 | 63 | 89 | 7.0 | 5.0 | 0.00 | 0.00 | 0.00 | 55 | 1006.3 |
| 20260508222636 | 63 | 81 | 5.0 | 6.0 | 0.00 | 0.00 | 0.00 | 54 | 1006.4 |
| 20260508222137 | 63 | 75 | 6.0 | 4.0 | 0.00 | 0.00 | 0.00 | 54 | 1006.4 |
| 20260508221636 | 63 | 71 | 8.0 | 4.0 | 0.00 | 0.00 | 0.00 | 55 | 1006.4 |
| 20260508221137 | 63 | 80 | 2.0 | 4.0 | 0.00 | 0.00 | 0.00 | 55 | 1006.4 |
| 20260508220637 | 63 | 67 | 8.0 | 4.0 | 0.00 | 0.00 | 0.00 | 55 | 1006.4 |
| 20260508220137 | 62 | 87 | 3.0 | 5.0 | 0.00 | 0.00 | 0.00 | 54 | 1006.4 |
| 20260508215637 | 62 | 65 | 5.0 | 5.0 | 0.00 | 0.02 | 0.00 | 55 | 1006.5 |
| 20260508215137 | 62 | 82 | 5.0 | 5.0 | 0.00 | 0.02 | 0.00 | 56 | 1006.5 |
| 20260508214636 | 62 | 75 | 4.0 | 5.0 | 0.00 | 0.02 | 0.00 | 57 | 1006.6 |
| 20260508214136 | 62 | 70 | 7.0 | 5.0 | 0.00 | 0.02 | 0.00 | 58 | 1006.6 |
| 20260508213636 | 62 | 60 | 10.0 | 5.0 | 0.00 | 0.02 | 0.00 | 59 | 1006.6 |
| 20260508213136 | 62 | 72 | 5.0 | 6.0 | 0.00 | 0.02 | 0.00 | 59 | 1006.5 |
| 20260508212636 | 62 | 79 | 5.0 | 5.0 | 0.00 | 0.02 | 0.00 | 59 | 1006.7 |
| 20260508212136 | 62 | 93 | 3.0 | 5.0 | 0.00 | 0.02 | 0.00 | 61 | 1006.7 |
| 20260508211636 | 61 | 77 | 3.0 | 5.0 | 0.00 | 0.02 | 0.00 | 61 | 1006.7 |
| 20260508211137 | 61 | 60 | 5.0 | 4.0 | 0.00 | 0.02 | 0.00 | 61 | 1006.6 |
| 20260508210636 | 61 | 50 | 5.0 | 4.0 | 0.00 | 0.02 | 0.00 | 62 | 1006.6 |
| 20260508210137 | 61 | 79 | 8.0 | 5.0 | 0.00 | 0.02 | 0.00 | 61 | 1006.6 |
| 20260508205636 | 61 | 78 | 2.0 | 6.0 | 0.00 | 0.02 | 0.00 | 60 | 1006.6 |
| 20260508205137 | 62 | 53 | 6.0 | 5.0 | 0.00 | 0.02 | 0.00 | 59 | 1006.7 |
| 20260508204637 | 62 | 68 | 4.0 | 4.0 | 0.00 | 0.02 | 0.00 | 59 | 1006.7 |
| 20260508204136 | 61 | 88 | 2.0 | 5.0 | 0.00 | 0.02 | 0.00 | 59 | 1006.8 |
| 20260508203636 | 61 | 86 | 5.0 | 5.0 | 0.00 | 0.02 | 0.00 | 58 | 1006.9 |
| 20260508203137 | 61 | 69 | 9.0 | 4.0 | 0.00 | 0.02 | 0.00 | 57 | 1007.0 |
| 20260508202636 | 61 | 76 | 4.0 | 4.0 | 0.00 | 0.02 | 0.00 | 57 | 1007.0 |
| 20260508202136 | 60 | 15 | 2.0 | 5.0 | 0.00 | 0.02 | 0.00 | 56 | 1007.1 |
| 20260508201636 | 61 | 63 | 9.0 | 5.0 | 0.00 | 0.02 | 0.00 | 55 | 1007.1 |
| 20260508201137 | 61 | 65 | 9.0 | 4.0 | 0.00 | 0.02 | 0.00 | 53 | 1007.2 |
| 20260508200636 | 61 | 54 | 2.0 | 5.0 | 0.00 | 0.02 | 0.00 | 52 | 1007.2 |
| 20260508200137 | 61 | 56 | 6.0 | 6.0 | 0.00 | 0.02 | 0.00 | 51 | 1007.4 |
| 20260508195636 | 62 | 42 | 8.0 | 5.0 | 0.00 | 0.02 | 0.00 | 49 | 1007.5 |
| 20260508195137 | 62 | 34 | 7.0 | 5.0 | 0.00 | 0.02 | 0.00 | 48 | 1007.6 |
| 20260508194636 | 63 | 67 | 7.0 | 5.0 | 0.00 | 0.02 | 0.00 | 47 | 1007.5 |
| 20260508194136 | 64 | 81 | 5.0 | 5.0 | 0.00 | 0.02 | 0.00 | 46 | 1007.7 |
| 20260508193636 | 65 | 121 | 2.0 | 5.0 | 0.00 | 0.02 | 0.00 | 44 | 1007.6 |
| 20260508193137 | 65 | 75 | 6.0 | 5.0 | 0.00 | 0.02 | 0.00 | 44 | 1007.7 |
| 20260508192636 | 66 | 75 | 4.0 | 5.0 | 0.00 | 0.02 | 0.00 | 44 | 1007.7 |
| 20260508192136 | 67 | 84 | 2.0 | 5.0 | 0.00 | 0.02 | 0.00 | 44 | 1007.8 |
| 20260508191636 | 67 | 82 | 5.0 | 6.0 | 0.00 | 0.02 | 0.00 | 44 | 1007.8 |
| 20260508191137 | 67 | 71 | 9.0 | 6.0 | 0.00 | 0.02 | 0.00 | 43 | 1007.8 |
| 20260508190636 | 67 | 72 | 8.0 | 7.0 | 0.00 | 0.02 | 0.00 | 43 | 1007.8 |
| 20260508190137 | 67 | 139 | 4.0 | 6.0 | 0.00 | 0.02 | 0.00 | 42 | 1007.9 |
| 20260508185636 | 68 | 60 | 9.0 | 5.0 | 0.00 | 0.02 | 0.00 | 42 | 1008.0 |
| 20260508185136 | 68 | 54 | 5.0 | 5.0 | 0.00 | 0.02 | 0.00 | 41 | 1008.1 |
| 20260508184636 | 67 | 0 | 0.0 | 6.0 | 0.00 | 0.02 | 0.00 | 42 | 1008.1 |
| 20260508184136 | 67 | 46 | 6.0 | 6.0 | 0.00 | 0.02 | 0.00 | 42 | 1008.2 |
| 20260508183636 | 68 | 60 | 5.0 | 6.0 | 0.00 | 0.02 | 0.00 | 41 | 1008.4 |
| 20260508183137 | 68 | 52 | 7.0 | 5.0 | 0.00 | 0.02 | 0.00 | 40 | 1008.4 |
| 20260508182636 | 68 | 86 | 3.0 | 5.0 | 0.00 | 0.02 | 0.00 | 38 | 1008.5 |
| 20260508182137 | 69 | 136 | 2.0 | 6.0 | 0.00 | 0.02 | 0.00 | 37 | 1008.5 |
| 20260508181636 | 69 | 69 | 7.0 | 6.0 | 0.00 | 0.02 | 0.00 | 36 | 1008.5 |
| 20260508181136 | 69 | 53 | 7.0 | 5.0 | 0.00 | 0.02 | 0.00 | 34 | 1008.5 |
| 20260508180636 | 69 | 65 | 4.0 | 6.0 | 0.00 | 0.02 | 0.00 | 33 | 1008.6 |
| 20260508180136 | 71 | 68 | 6.0 | 5.0 | 0.00 | 0.02 | 0.00 | 33 | 1008.8 |
| 20260508175636 | 71 | 89 | 5.0 | 6.0 | 0.00 | 0.02 | 0.00 | 34 | 1008.9 |
| 20260508175136 | 71 | 53 | 4.0 | 5.0 | 0.00 | 0.02 | 0.00 | 34 | 1008.9 |
| 20260508174636 | 72 | 95 | 5.0 | 4.0 | 0.00 | 0.02 | 0.00 | 34 | 1009.2 |
| 20260508174136 | 72 | 70 | 7.0 | 5.0 | 0.00 | 0.02 | 0.00 | 33 | 1009.1 |
| 20260508173636 | 71 | 109 | 2.0 | 5.0 | 0.00 | 0.02 | 0.00 | 34 | 1009.3 |
| 20260508173136 | 71 | 83 | 6.0 | 5.0 | 0.00 | 0.02 | 0.00 | 33 | 1009.3 |
| 20260508172636 | 71 | 79 | 5.0 | 5.0 | 0.00 | 0.02 | 0.00 | 35 | 1009.5 |
| 20260508172138 | 71 | 93 | 4.0 | 5.0 | 0.00 | 0.02 | 0.00 | 36 | 1009.5 |
| 20260508171637 | 70 | 91 | 2.0 | 4.0 | 0.00 | 0.02 | 0.00 | 36 | 1009.6 |
| 20260508171137 | 69 | 70 | 5.0 | 4.0 | 0.00 | 0.02 | 0.00 | 37 | 1009.6 |
| 20260508170637 | 68 | 271 | 4.0 | 4.0 | 0.00 | 0.02 | 0.00 | 39 | 1009.8 |
| 20260508170137 | 68 | 19 | 4.0 | 3.0 | 0.00 | 0.02 | 0.00 | 38 | 1009.8 |
| 20260508165637 | 68 | 49 | 3.0 | 4.0 | 0.00 | 0.02 | 0.00 | 40 | 1009.9 |
| 20260508165138 | 67 | 97 | 2.0 | 4.0 | 0.00 | 0.02 | 0.00 | 41 | 1009.9 |
| 20260508164637 | 66 | 67 | 4.0 | 4.0 | 0.00 | 0.02 | 0.00 | 42 | 1009.9 |
| 20260508164137 | 67 | 65 | 4.0 | 4.0 | 0.00 | 0.02 | 0.00 | 40 | 1010.0 |
| 20260508163637 | 67 | 81 | 2.0 | 4.0 | 0.00 | 0.02 | 0.00 | 40 | 1010.1 |
| 20260508163137 | 69 | 54 | 6.0 | 4.0 | 0.00 | 0.02 | 0.00 | 39 | 1010.3 |
| 20260508162637 | 70 | 75 | 4.0 | 3.0 | 0.00 | 0.02 | 0.00 | 40 | 1010.2 |
| 20260508162137 | 69 | 115 | 1.0 | 3.0 | 0.00 | 0.02 | 0.00 | 42 | 1010.3 |
| 20260508161637 | 68 | 53 | 2.0 | 2.0 | 0.00 | 0.02 | 0.00 | 45 | 1010.2 |
| 20260508161137 | 67 | 113 | 2.0 | 2.0 | 0.00 | 0.02 | 0.00 | 42 | 1010.2 |
| 20260508160637 | 68 | 80 | 2.0 | 2.0 | 0.00 | 0.02 | 0.00 | 41 | 1010.2 |
| 20260508160137 | 67 | 192 | 5.0 | 3.0 | 0.00 | 0.02 | 0.00 | 41 | 1010.3 |
| 20260508155638 | 67 | 0 | 0.0 | 3.0 | 0.00 | 0.02 | 0.00 | 41 | 1010.3 |
| 20260508155137 | 67 | 216 | 1.0 | 3.0 | 0.00 | 0.02 | 0.00 | 42 | 1010.4 |
| 20260508154637 | 66 | 218 | 5.0 | 3.0 | 0.00 | 0.02 | 0.00 | 41 | 1010.5 |
| 20260508154138 | 66 | 199 | 3.0 | 3.0 | 0.00 | 0.02 | 0.00 | 41 | 1010.5 |
| 20260508153637 | 66 | 182 | 4.0 | 2.0 | 0.00 | 0.02 | 0.00 | 45 | 1010.5 |
| 20260508153137 | 65 | 195 | 4.0 | 2.0 | 0.00 | 0.02 | 0.00 | 45 | 1010.7 |
| 20260508152637 | 64 | 238 | 3.0 | 2.0 | 0.00 | 0.02 | 0.00 | 47 | 1010.5 |
| 20260508152137 | 64 | 70 | 2.0 | 2.0 | 0.00 | 0.02 | 0.00 | 46 | 1010.6 |
| 20260508151637 | 64 | 0 | 0.0 | 2.0 | 0.00 | 0.02 | 0.00 | 52 | 1010.6 |
| 20260508151137 | 63 | 203 | 3.0 | 2.0 | 0.00 | 0.02 | 0.00 | 52 | 1010.6 |
| 20260508150637 | 63 | 206 | 1.0 | 2.0 | 0.00 | 0.02 | 0.00 | 54 | 1010.7 |
| 20260508150137 | 63 | 217 | 2.0 | 1.0 | 0.00 | 0.02 | 0.00 | 58 | 1010.7 |
| 20260508145637 | 62 | 0 | 0.0 | 1.0 | 0.00 | 0.02 | 0.00 | 60 | 1010.8 |
| 20260508145137 | 61 | 208 | 3.0 | 2.0 | 0.00 | 0.02 | 0.00 | 61 | 1010.7 |
| 20260508144637 | 61 | 164 | 1.0 | 1.0 | 0.00 | 0.02 | 0.00 | 63 | 1010.7 |
| 20260508144137 | 60 | 233 | 1.0 | 1.0 | 0.00 | 0.02 | 0.00 | 66 | 1010.8 |
| 20260508143637 | 59 | 250 | 1.0 | 1.0 | 0.00 | 0.02 | 0.00 | 66 | 1010.9 |
| 20260508143137 | 58 | 178 | 2.0 | 1.0 | 0.00 | 0.02 | 0.00 | 67 | 1010.9 |
| 20260508142637 | 58 | 51 | 2.0 | 1.0 | 0.00 | 0.02 | 0.00 | 68 | 1010.9 |
| 20260508142137 | 57 | 0 | 0.0 | 0.0 | 0.00 | 0.02 | 0.00 | 70 | 1010.8 |
| 20260508141637 | 57 | 179 | 2.0 | 1.0 | 0.00 | 0.02 | 0.00 | 72 | 1011.0 |
| 20260508141138 | 56 | 0 | 0.0 | 1.0 | 0.00 | 0.02 | 0.00 | 75 | 1011.0 |
| 20260508140637 | 56 | 187 | 3.0 | 1.0 | 0.00 | 0.02 | 0.00 | 77 | 1010.9 |
| 20260508140137 | 55 | 0 | 0.0 | 1.0 | 0.00 | 0.02 | 0.00 | 81 | 1010.9 |
| 20260508135637 | 54 | 79 | 1.0 | 2.0 | 0.00 | 0.02 | 0.00 | 82 | 1010.7 |
| 20260508135137 | 53 | 73 | 1.0 | 2.0 | 0.00 | 0.02 | 0.00 | 84 | 1010.9 |
| 20260508134637 | 53 | 56 | 5.0 | 2.0 | 0.00 | 0.02 | 0.00 | 85 | 1010.8 |
| 20260508134137 | 52 | 63 | 2.0 | 1.0 | 0.00 | 0.02 | 0.00 | 88 | 1010.8 |
| 20260508133637 | 52 | 62 | 2.0 | 0.0 | 0.00 | 0.02 | 0.00 | 89 | 1010.8 |
| 20260508133137 | 51 | 0 | 0.0 | 0.0 | 0.00 | 0.02 | 0.00 | 89 | 1010.8 |
| 20260508132636 | 51 | 0 | 0.0 | 0.0 | 0.00 | 0.02 | 0.00 | 89 | 1011.0 |
| 20260508132137 | 51 | 0 | 0.0 | 0.0 | 0.00 | 0.02 | 0.00 | 90 | 1011.0 |
| 20260508131636 | 50 | 0 | 0.0 | 0.0 | 0.00 | 0.02 | 0.00 | 90 | 1011.0 |
| 20260508131137 | 50 | 0 | 0.0 | 1.0 | 0.00 | 0.02 | 0.00 | 90 | 1010.9 |
| 20260508130637 | 49 | 67 | 2.0 | 1.0 | 0.00 | 0.02 | 0.00 | 90 | 1011.0 |
| 20260508130137 | 49 | 67 | 2.0 | 0.0 | 0.00 | 0.02 | 0.00 | 90 | 1011.1 |
| 20260508125636 | 48 | 0 | 0.0 | 1.0 | 0.00 | 0.02 | 0.00 | 90 | 1011.1 |
| 20260508125137 | 48 | 0 | 0.0 | 1.0 | 0.00 | 0.02 | 0.00 | 90 | 1011.1 |
| 20260508124637 | 48 | 53 | 2.0 | 0.0 | 0.00 | 0.02 | 0.00 | 90 | 1011.0 |
| 20260508124137 | 47 | 0 | 0.0 | 0.0 | 0.00 | 0.02 | 0.00 | 90 | 1011.2 |
| 20260508123637 | 47 | 0 | 0.0 | 0.0 | 0.00 | 0.02 | 0.00 | 90 | 1011.1 |
| 20260508123137 | 46 | 207 | 1.0 | 0.0 | 0.00 | 0.02 | 0.00 | 90 | 1011.1 |
| 20260508122636 | 46 | 0 | 0.0 | 0.0 | 0.00 | 0.02 | 0.00 | 90 | 1011.0 |
| 20260508122137 | 46 | 0 | 0.0 | 0.0 | 0.00 | 0.02 | 0.00 | 90 | 1011.1 |
| 20260508121638 | 46 | 0 | 0.0 | 0.0 | 0.00 | 0.02 | 0.00 | 90 | 1011.3 |
| 20260508121137 | 45 | 0 | 0.0 | 0.0 | 0.00 | 0.02 | 0.00 | 90 | 1011.3 |
| 20260508120636 | 45 | 0 | 0.0 | 0.0 | 0.00 | 0.02 | 0.00 | 89 | 1011.2 |
| 20260508120137 | 45 | 0 | 0.0 | 0.0 | 0.00 | 0.02 | 0.00 | 90 | 1011.2 |
| 20260508115636 | 45 | 0 | 0.0 | 0.0 | 0.00 | 0.02 | 0.00 | 90 | 1011.1 |
| 20260508115137 | 44 | 0 | 0.0 | 0.0 | 0.00 | 0.02 | 0.00 | 89 | 1011.0 |
| 20260508114637 | 44 | 0 | 0.0 | 0.0 | 0.00 | 0.02 | 0.00 | 89 | 1011.0 |
| 20260508114138 | 44 | 0 | 0.0 | 0.0 | 0.00 | 0.02 | 0.00 | 89 | 1011.0 |
| 20260508113636 | 43 | 0 | 0.0 | 0.0 | 0.00 | 0.02 | 0.00 | 89 | 1011.0 |
| 20260508113137 | 43 | 0 | 0.0 | 0.0 | 0.00 | 0.02 | 0.00 | 89 | 1011.0 |
| 20260508112636 | 43 | 0 | 0.0 | 0.0 | 0.00 | 0.02 | 0.00 | 89 | 1010.9 |
| 20260508112138 | 42 | 0 | 0.0 | 0.0 | 0.00 | 0.02 | 0.00 | 89 | 1010.9 |
| 20260508111636 | 42 | 0 | 0.0 | 0.0 | 0.00 | 0.02 | 0.00 | 88 | 1010.9 |
| 20260508111137 | 42 | 0 | 0.0 | 0.0 | 0.00 | 0.02 | 0.00 | 88 | 1010.8 |
| 20260508110637 | 42 | 0 | 0.0 | 0.0 | 0.00 | 0.02 | 0.00 | 88 | 1010.7 |
| 20260508110137 | 42 | 0 | 0.0 | 0.0 | 0.00 | 0.02 | 0.00 | 88 | 1010.7 |
| 20260508105636 | 42 | 0 | 0.0 | 0.0 | 0.00 | 0.02 | 0.00 | 88 | 1010.7 |
| 20260508105137 | 42 | 0 | 0.0 | 0.0 | 0.00 | 0.02 | 0.00 | 88 | 1010.7 |
| 20260508104636 | 42 | 0 | 0.0 | 0.0 | 0.00 | 0.02 | 0.00 | 88 | 1010.7 |
| 20260508104137 | 42 | 0 | 0.0 | 0.0 | 0.00 | 0.02 | 0.00 | 88 | 1010.7 |
| 20260508103636 | 42 | 0 | 0.0 | 0.0 | 0.00 | 0.02 | 0.00 | 88 | 1010.7 |
| 20260508103137 | 42 | 0 | 0.0 | 1.0 | 0.00 | 0.02 | 0.00 | 88 | 1010.6 |
| 20260508102637 | 42 | 0 | 0.0 | 1.0 | 0.00 | 0.02 | 0.00 | 88 | 1010.6 |
| 20260508102137 | 42 | 0 | 0.0 | 0.0 | 0.00 | 0.02 | 0.00 | 88 | 1010.7 |
| 20260508101636 | 42 | 318 | 1.0 | 0.0 | 0.00 | 0.02 | 0.00 | 87 | 1010.7 |
| 20260508101137 | 41 | 0 | 0.0 | 0.0 | 0.00 | 0.02 | 0.00 | 87 | 1010.7 |
| 20260508100636 | 42 | 0 | 0.0 | 0.0 | 0.00 | 0.02 | 0.00 | 87 | 1010.8 |
| 20260508100137 | 42 | 0 | 0.0 | 0.0 | 0.00 | 0.02 | 0.00 | 87 | 1010.9 |
| 20260508095637 | 42 | 0 | 0.0 | 0.0 | 0.00 | 0.02 | 0.00 | 87 | 1010.9 |
| 20260508095137 | 42 | 0 | 0.0 | 0.0 | 0.00 | 0.02 | 0.00 | 87 | 1010.9 |
| 20260508094637 | 42 | 0 | 0.0 | 0.0 | 0.00 | 0.02 | 0.00 | 87 | 1011.0 |
| 20260508094137 | 42 | 0 | 0.0 | 0.0 | 0.00 | 0.02 | 0.00 | 87 | 1010.9 |
| 20260508093636 | 42 | 0 | 0.0 | 0.0 | 0.00 | 0.02 | 0.00 | 86 | 1010.9 |
| 20260508093137 | 42 | 0 | 0.0 | 0.0 | 0.00 | 0.02 | 0.00 | 86 | 1011.0 |
| 20260508092636 | 42 | 0 | 0.0 | 0.0 | 0.00 | 0.02 | 0.00 | 86 | 1011.0 |
| 20260508092138 | 42 | 0 | 0.0 | 0.0 | 0.00 | 0.02 | 0.00 | 87 | 1011.1 |
| 20260508091637 | 42 | 0 | 0.0 | 0.0 | 0.00 | 0.02 | 0.00 | 86 | 1011.1 |
| 20260508091137 | 42 | 0 | 0.0 | 0.0 | 0.00 | 0.02 | 0.00 | 86 | 1011.0 |
| 20260508090636 | 42 | 0 | 0.0 | 0.0 | 0.00 | 0.02 | 0.00 | 86 | 1011.0 |
| 20260508090137 | 43 | 0 | 0.0 | 0.0 | 0.00 | 0.02 | 0.00 | 86 | 1011.0 |
| 20260508085636 | 43 | 0 | 0.0 | 0.0 | 0.00 | 0.02 | 0.00 | 86 | 1011.0 |
| 20260508085137 | 43 | 0 | 0.0 | 0.0 | 0.00 | 0.02 | 0.00 | 86 | 1010.9 |
| 20260508084636 | 43 | 0 | 0.0 | 0.0 | 0.00 | 0.02 | 0.00 | 86 | 1011.1 |
| 20260508084137 | 43 | 0 | 0.0 | 0.0 | 0.00 | 0.02 | 0.00 | 86 | 1011.0 |
| 20260508083636 | 43 | 0 | 0.0 | 0.0 | 0.00 | 0.02 | 0.00 | 86 | 1011.1 |
| 20260508083137 | 43 | 0 | 0.0 | 0.0 | 0.00 | 0.02 | 0.00 | 86 | 1011.0 |
| 20260508082636 | 43 | 0 | 0.0 | 0.0 | 0.00 | 0.02 | 0.00 | 86 | 1011.1 |
| 20260508082137 | 43 | 0 | 0.0 | 0.0 | 0.00 | 0.02 | 0.00 | 86 | 1011.1 |
| 20260508081637 | 43 | 0 | 0.0 | 0.0 | 0.00 | 0.02 | 0.00 | 86 | 1011.1 |
| 20260508081137 | 44 | 0 | 0.0 | 0.0 | 0.00 | 0.02 | 0.00 | 86 | 1011.3 |
| 20260508080636 | 44 | 0 | 0.0 | 0.0 | 0.00 | 0.02 | 0.00 | 86 | 1011.4 |
| 20260508080137 | 44 | 0 | 0.0 | 0.0 | 0.00 | 0.02 | 0.00 | 86 | 1011.3 |
| 20260508075636 | 44 | 0 | 0.0 | 0.0 | 0.00 | 0.02 | 0.00 | 86 | 1011.4 |
| 20260508075136 | 44 | 0 | 0.0 | 0.0 | 0.00 | 0.02 | 0.00 | 86 | 1011.4 |
| 20260508074636 | 44 | 0 | 0.0 | 0.0 | 0.00 | 0.02 | 0.00 | 85 | 1011.2 |
| 20260508074137 | 45 | 0 | 0.0 | 0.0 | 0.00 | 0.02 | 0.00 | 86 | 1011.3 |
| 20260508073636 | 45 | 0 | 0.0 | 1.0 | 0.00 | 0.02 | 0.00 | 86 | 1011.2 |
| 20260508073137 | 45 | 351 | 1.0 | 1.0 | 0.00 | 0.02 | 0.00 | 86 | 1011.2 |
| 20260508072636 | 45 | 0 | 0.0 | 0.0 | 0.00 | 0.02 | 0.00 | 85 | 1011.3 |
| 20260508072138 | 45 | 0 | 0.0 | 0.0 | 0.00 | 0.02 | 0.00 | 85 | 1011.4 |
| 20260508071636 | 45 | 0 | 0.0 | 0.0 | 0.00 | 0.02 | 0.00 | 85 | 1011.4 |
| 20260508071136 | 46 | 352 | 2.0 | 1.0 | 0.00 | 0.02 | 0.00 | 85 | 1011.4 |
| 20260508070637 | 46 | 0 | 0.0 | 1.0 | 0.00 | 0.02 | 0.00 | 85 | 1011.4 |
| 20260508070137 | 46 | 1 | 2.0 | 1.0 | 0.00 | 0.02 | 0.00 | 85 | 1011.4 |
| 20260508065636 | 46 | 337 | 1.0 | 1.0 | 0.00 | 0.02 | 0.00 | 85 | 1011.4 |
| 20260508065137 | 46 | 339 | 1.0 | 1.0 | 0.00 | 0.02 | 0.00 | 84 | 1011.5 |
| 20260508064637 | 46 | 327 | 3.0 | 1.0 | 0.00 | 0.02 | 0.00 | 84 | 1011.4 |
| 20260508064137 | 47 | 306 | 1.0 | 0.0 | 0.00 | 0.02 | 0.00 | 84 | 1011.3 |
| 20260508063636 | 47 | 0 | 0.0 | 0.0 | 0.00 | 0.02 | 0.00 | 84 | 1011.3 |
| 20260508063137 | 47 | 0 | 0.0 | 0.0 | 0.00 | 0.02 | 0.00 | 83 | 1011.2 |
| 20260508062636 | 47 | 336 | 1.0 | 0.0 | 0.00 | 0.02 | 0.00 | 83 | 1011.3 |
| 20260508062137 | 47 | 0 | 0.0 | 0.0 | 0.00 | 0.02 | 0.00 | 83 | 1011.3 |
| 20260508061636 | 47 | 0 | 0.0 | 0.0 | 0.00 | 0.02 | 0.00 | 83 | 1011.3 |
| 20260508061137 | 47 | 0 | 0.0 | 0.0 | 0.00 | 0.02 | 0.00 | 83 | 1011.2 |
| 20260508060636 | 48 | 0 | 0.0 | 0.0 | 0.00 | 0.02 | 0.00 | 83 | 1011.2 |
| 20260508060136 | 48 | 336 | 1.0 | 0.0 | 0.00 | 0.02 | 0.00 | 83 | 1011.2 |
| 20260508055637 | 48 | 0 | 0.0 | 0.0 | 0.00 | 0.02 | 0.00 | 82 | 1011.2 |
| 20260508055136 | 48 | 0 | 0.0 | 1.0 | 0.00 | 0.02 | 0.00 | 82 | 1011.2 |
| 20260508054636 | 48 | 0 | 0.0 | 1.0 | 0.00 | 0.02 | 0.00 | 82 | 1011.2 |
| 20260508054137 | 48 | 336 | 1.0 | 1.0 | 0.00 | 0.02 | 0.00 | 82 | 1011.2 |
| 20260508053636 | 49 | 0 | 0.0 | 0.0 | 0.00 | 0.02 | 0.00 | 82 | 1011.1 |
| 20260508053136 | 49 | 0 | 0.0 | 0.0 | 0.00 | 0.02 | 0.00 | 81 | 1011.1 |
| 20260508052636 | 49 | 0 | 0.0 | 0.0 | 0.00 | 0.02 | 0.00 | 81 | 1011.1 |
| 20260508052137 | 49 | 336 | 1.0 | 1.0 | 0.00 | 0.02 | 0.00 | 81 | 1011.1 |
| 20260508051636 | 49 | 0 | 0.0 | 1.0 | 0.00 | 0.02 | 0.00 | 81 | 1011.0 |
| 20260508051137 | 49 | 0 | 0.0 | 0.0 | 0.00 | 0.02 | 0.00 | 81 | 1011.0 |
| 20260508050636 | 49 | 0 | 0.0 | 0.0 | 0.00 | 0.02 | 0.00 | 80 | 1011.0 |
| 20260508050136 | 49 | 0 | 0.0 | 0.0 | 0.00 | 0.02 | 0.00 | 80 | 1011.0 |
| 20260508045636 | 49 | 0 | 0.0 | 0.0 | 0.00 | 0.02 | 0.02 | 80 | 1011.0 |
| 20260508045136 | 49 | 0 | 0.0 | 0.0 | 0.00 | 0.02 | 0.02 | 80 | 1011.0 |
| 20260508044636 | 49 | 0 | 0.0 | 0.0 | 0.00 | 0.02 | 0.02 | 80 | 1010.9 |
| 20260508044137 | 49 | 0 | 0.0 | 0.0 | 0.00 | 0.02 | 0.02 | 80 | 1011.0 |
| 20260508043636 | 50 | 0 | 0.0 | 0.0 | 0.00 | 0.02 | 0.02 | 80 | 1010.9 |
| 20260508043137 | 50 | 0 | 0.0 | 0.0 | 0.00 | 0.02 | 0.02 | 80 | 1010.9 |
| 20260508042636 | 50 | 0 | 0.0 | 0.0 | 0.00 | 0.02 | 0.02 | 80 | 1010.8 |
| 20260508042136 | 50 | 0 | 0.0 | 0.0 | 0.00 | 0.02 | 0.02 | 80 | 1010.9 |
| 20260508041636 | 50 | 306 | 1.0 | 1.0 | 0.00 | 0.02 | 0.02 | 80 | 1010.9 |
| 20260508041136 | 50 | 0 | 0.0 | 0.0 | 0.00 | 0.02 | 0.02 | 80 | 1010.7 |
| 20260508040636 | 51 | 198 | 1.0 | 0.0 | 0.00 | 0.02 | 0.02 | 80 | 1010.7 |
| 20260508040137 | 51 | 0 | 0.0 | 0.0 | 0.00 | 0.02 | 0.02 | 80 | 1010.7 |
| 20260508035636 | 51 | 0 | 0.0 | 0.0 | 0.00 | 0.02 | 0.02 | 81 | 1010.7 |
| 20260508035137 | 51 | 0 | 0.0 | 0.0 | 0.00 | 0.02 | 0.02 | 80 | 1010.7 |